Find Starlink 30536

NORAD ID: 57993 Int'l Des: 2023-153 Owner: SPXS Country: US Constellation: starlink operational
LEOCIRCULAR

Live Position

Loading 3D Globe...

About Starlink 30536

Description loading...

Upcoming Passes

Passes for default location (London). Set your location on the main map for personalized predictions.

Altitude History

Loading altitude history...

Two-Line Element Set

1 57993U 23153C 26123.26685124 -.00000033 00000-0 83292-5 0 9991
2 57993 43.0038 118.7973 0001516 266.8806 93.1872 15.27576762143240
Epoch: May 3, 2026 • Age: 12 hours

Current Status

Altitude 483.1 km
Velocity 7.63 km/s
Sub-Earth Point 21.80°N, 138.71°E
Launch Date Oct 5, 2023
Age 2.5 years
Type internet

Technical Details

Classification Payload
Mass 730.00 kg
Dry Mass 700.00 kg
Total Mass 730.00 kg
Length 0.30 m
Diameter 4.10 m
Span 29.00 m
Shape Box + pan
Manufacturer SPXS
Bus Type Starlink V2M
Phase Status In Orbit
Owner/State SPXS/US

Most Searched